THY52U LTFM-LFSB

Flight info

Callsign THY52U
Flight time N/A
Altitude 34000
Route VADEN1D/35L VADEN N618 BAKLO DCT XANEX DCT UTEKA DCT SMI DCT BEDOX DCT ERKIR L608 KPT L856 AKABI/N0456F350 L856 TRA/N0431F280 T718 RIGVI
Aircraft B738/M-SDE2E3FGHIRWXY/LB1

Departure

Time 2026-05-05 14:37
Airport İstanbul Airport (LTFM)

Arrival

Time N/A
Airport EuroAirport Basel–Mulhouse–Freiburg (LFSB)
Time Latitude Longitude Altitude Speed Heading
2026-05-05 14:10 41.27490 28.73485 333 ft 0 kts 359°
2026-05-05 14:27 41.27483 28.73485 333 ft 4 kts 359°
2026-05-05 14:27 41.27456 28.73485 328 ft 4 kts 359°
2026-05-05 14:27 41.27430 28.73486 328 ft 2 kts 359°
2026-05-05 14:28 41.27408 28.73490 330 ft 4 kts 321°
2026-05-05 14:28 41.27398 28.73517 331 ft 4 kts 271°
2026-05-05 14:28 41.27398 28.73534 332 ft 1 kts 269°
2026-05-05 14:28 41.27398 28.73535 333 ft 0 kts 269°
2026-05-05 14:31 41.27398 28.73527 332 ft 2 kts 269°
2026-05-05 14:32 41.27397 28.73467 331 ft 11 kts 269°
2026-05-05 14:32 41.27396 28.73331 333 ft 17 kts 269°
2026-05-05 14:32 41.27394 28.73192 333 ft 12 kts 269°
2026-05-05 14:32 41.27392 28.73078 333 ft 12 kts 269°
2026-05-05 14:33 41.27372 28.72983 333 ft 9 kts 213°
2026-05-05 14:33 41.27308 28.72978 332 ft 9 kts 178°
2026-05-05 14:33 41.27238 28.72979 332 ft 12 kts 179°
2026-05-05 14:33 41.27129 28.72982 329 ft 19 kts 179°
2026-05-05 14:34 41.26977 28.72986 329 ft 24 kts 179°
2026-05-05 14:34 41.26802 28.72991 332 ft 26 kts 179°
2026-05-05 14:34 41.26716 28.72992 331 ft 1 kts 191°
2026-05-05 14:34 41.26714 28.72977 331 ft 4 kts 258°
2026-05-05 14:35 41.26717 28.72900 333 ft 13 kts 271°
2026-05-05 14:35 41.26714 28.72750 333 ft 19 kts 269°
2026-05-05 14:35 41.26713 28.72652 331 ft 6 kts 269°
2026-05-05 14:35 41.26713 28.72593 333 ft 6 kts 269°
2026-05-05 14:36 41.26718 28.72530 331 ft 8 kts 298°
2026-05-05 14:36 41.26746 28.72514 332 ft 0 kts 360°
2026-05-05 14:36 41.26804 28.72514 332 ft 31 kts 359°
2026-05-05 14:37 41.27266 28.72503 332 ft 100 kts 359°
2026-05-05 14:37 41.28167 28.72483 332 ft 156 kts 359°
2026-05-05 14:37 41.29366 28.72460 702 ft 177 kts 360°
2026-05-05 14:37 41.30602 28.72463 1562 ft 180 kts
2026-05-05 14:38 41.31898 28.72467 2178 ft 196 kts 360°
2026-05-05 14:38 41.33365 28.72469 2463 ft 220 kts
2026-05-05 14:38 41.34937 28.72471 2988 ft 230 kts 359°
2026-05-05 14:38 41.36550 28.72460 3618 ft 238 kts 356°
2026-05-05 14:39 41.38137 28.71778 4426 ft 242 kts 326°
2026-05-05 14:39 41.39348 28.70166 5149 ft 252 kts 307°
2026-05-05 14:39 41.40309 28.68197 5994 ft 256 kts 305°
2026-05-05 14:39 41.41236 28.66194 6794 ft 259 kts 305°
2026-05-05 14:40 41.42193 28.64104 7609 ft 262 kts 305°
2026-05-05 14:40 41.43147 28.62018 8425 ft 265 kts 305°
2026-05-05 14:40 41.44110 28.59917 9224 ft 268 kts 306°
2026-05-05 14:40 41.45088 28.57786 10028 ft 271 kts 306°
2026-05-05 14:41 41.46093 28.55603 10468 ft 287 kts 306°
2026-05-05 14:41 41.47187 28.53239 10647 ft 310 kts 306°
2026-05-05 14:41 41.48358 28.50705 10800 ft 333 kts 305°
2026-05-05 14:41 41.49583 28.48049 11114 ft 348 kts 305°
2026-05-05 14:42 41.50859 28.45271 11718 ft 354 kts 305°
2026-05-05 14:42 41.52148 28.42457 12438 ft 357 kts 305°
2026-05-05 14:42 41.53449 28.39618 13104 ft 361 kts 305°
2026-05-05 14:42 41.54768 28.36738 13773 ft 365 kts 305°
2026-05-05 14:43 41.56099 28.33833 14379 ft 369 kts 305°
2026-05-05 14:43 41.57444 28.30895 14997 ft 372 kts 305°
2026-05-05 14:43 41.58797 28.27938 15608 ft 375 kts 305°
2026-05-05 14:43 41.60165 28.24945 16183 ft 379 kts 305°
2026-05-05 14:44 41.61540 28.21935 16829 ft 380 kts 305°
2026-05-05 14:44 41.62922 28.18906 17442 ft 383 kts 305°
2026-05-05 14:44 41.64311 28.15861 18006 ft 387 kts 305°
2026-05-05 14:44 41.65716 28.12778 18541 ft 390 kts 305°
2026-05-05 14:45 41.67132 28.09666 19038 ft 393 kts 304°
2026-05-05 14:45 41.68560 28.06524 19534 ft 396 kts 304°
2026-05-05 14:45 41.69998 28.03357 20011 ft 400 kts 304°
2026-05-05 14:45 41.71446 28.00165 20481 ft 403 kts 304°
2026-05-05 14:46 41.72904 27.96948 20936 ft 406 kts 304°
2026-05-05 14:46 41.74377 27.93695 21378 ft 409 kts 304°
2026-05-05 14:46 41.75859 27.90417 21848 ft 413 kts 304°
2026-05-05 14:46 41.77351 27.87112 22278 ft 416 kts 303°
2026-05-05 14:47 41.78851 27.83788 22713 ft 419 kts 303°
2026-05-05 14:47 41.80364 27.80429 23140 ft 422 kts 303°
2026-05-05 14:47 41.81886 27.77048 23556 ft 425 kts 303°
2026-05-05 14:47 41.83419 27.73640 23885 ft 428 kts 303°
2026-05-05 14:48 41.84951 27.70227 24362 ft 427 kts 303°
2026-05-05 14:48 41.86485 27.66806 24779 ft 428 kts 303°
2026-05-05 14:48 41.88024 27.63372 25056 ft 431 kts 303°
2026-05-05 14:48 41.89576 27.59906 25345 ft 435 kts 303°
2026-05-05 14:49 41.91137 27.56417 25671 ft 437 kts 303°
2026-05-05 14:49 41.92703 27.52910 25988 ft 439 kts 303°
2026-05-05 14:49 41.94279 27.49376 26311 ft 441 kts 303°
2026-05-05 14:49 41.95855 27.45838 26617 ft 443 kts 304°
2026-05-05 14:50 41.97433 27.42289 27022 ft 442 kts 304°
2026-05-05 14:50 41.98996 27.38772 27275 ft 446 kts 303°
2026-05-05 14:50 42.00597 27.35168 27421 ft 451 kts 303°
2026-05-05 14:50 42.02208 27.31535 27694 ft 453 kts 303°
2026-05-05 14:51 42.03821 27.27891 28007 ft 454 kts 303°
2026-05-05 14:51 42.05437 27.24238 28316 ft 455 kts 303°
2026-05-05 14:51 42.07159 27.20663 28629 ft 453 kts 311°
2026-05-05 14:51 42.09197 27.17529 29491 ft 439 kts 315°
2026-05-05 14:52 42.11240 27.14517 30064 ft 435 kts 315°
2026-05-05 14:52 42.13289 27.11492 30269 ft 438 kts 315°
2026-05-05 14:52 42.15344 27.08438 30424 ft 442 kts 315°
2026-05-05 14:52 42.17408 27.05352 30687 ft 442 kts 315°
2026-05-05 14:53 42.19459 27.02267 31016 ft 441 kts 314°
2026-05-05 14:53 42.21503 26.99183 31312 ft 440 kts 314°
2026-05-05 14:53 42.23541 26.96101 31603 ft 440 kts 314°
2026-05-05 14:53 42.25566 26.93034 32022 ft 436 kts 314°
2026-05-05 14:54 42.27584 26.89975 32334 ft 436 kts 314°
2026-05-05 14:54 42.29603 26.86913 32543 ft 438 kts 314°
2026-05-05 14:54 42.31632 26.83834 32762 ft 438 kts 314°
2026-05-05 14:54 42.33658 26.80757 33011 ft 439 kts 314°
2026-05-05 14:55 42.35693 26.77662 33179 ft 441 kts 314°
2026-05-05 14:55 42.37729 26.74561 33431 ft 441 kts 314°
2026-05-05 14:55 42.39740 26.71492 34087 ft 430 kts 315°
2026-05-05 14:55 42.41714 26.68478 34430 ft 428 kts 314°
2026-05-05 14:56 42.45696 26.62397 34541 ft 435 kts 314°
2026-05-05 14:56 42.47700 26.59329 34767 ft 434 kts 314°
2026-05-05 14:56 42.49672 26.56307 35028 ft 433 kts 314°
2026-05-05 14:57 42.51663 26.53253 35233 ft 433 kts 314°
2026-05-05 14:57 42.53668 26.50127 35386 ft 434 kts 311°
2026-05-05 14:57 42.55353 26.46805 35676 ft 434 kts 302°
2026-05-05 14:57 42.56786 26.43202 35951 ft 433 kts 301°
2026-05-05 14:58 42.59592 26.35962 36017 ft 438 kts 301°
2026-05-05 14:58 42.62430 26.28658 36009 ft 436 kts 301°
2026-05-05 14:59 42.64790 26.22627 35992 ft 434 kts 301°
2026-05-05 14:59 42.67617 26.15415 36006 ft 431 kts 301°
2026-05-05 15:00 42.70424 26.08247 36014 ft 428 kts 301°
2026-05-05 15:00 42.73219 26.01091 36016 ft 429 kts 301°
2026-05-05 15:01 42.76018 25.93907 36004 ft 431 kts 301°
2026-05-05 15:01 42.78824 25.86685 36014 ft 432 kts 301°
2026-05-05 15:02 42.81636 25.79430 36013 ft 434 kts 300°
2026-05-05 15:02 42.84455 25.72135 36009 ft 436 kts 300°
2026-05-05 15:03 42.87277 25.64818 36011 ft 437 kts 300°
2026-05-05 15:03 42.90098 25.57480 36017 ft 437 kts 300°
2026-05-05 15:04 42.92912 25.50140 36015 ft 437 kts 300°